Location: Oshawa
(43.9000°N, 78.8670°W)
Time: 09:22:37
(UTC-05:00)

S-56A Canister/Altair - All Passes

Search period start: 27 January 2015 00:00
Search period end: 06 February 2015 00:00
Orbit: 634 x 2502 km, 38.9° (Epoch: 25 January)

Date Brightness Start Highest point End Pass type
(mag) Time Alt. Az. Time Alt. Az. Time Alt. Az.
27 Jan - 12:06:13 10° S 12:11:59 21° SE 12:19:49 10° E daylight
27 Jan - 14:06:18 10° SW 14:15:23 52° SSE 14:28:24 10° E daylight
27 Jan - 16:09:33 10° WSW 16:20:48 71° S 16:35:40 10° E daylight
27 Jan - 18:14:10 10° W 18:27:05 62° SSW 18:41:50 10° ESE visible
27 Jan - 20:20:10 10° W 20:32:45 36° SW 20:45:03 10° SSE visible
27 Jan - 22:33:21 10° WSW 22:37:03 11° SW 22:39:13 10° SW visible
28 Jan - 11:35:09 10° SSE 11:39:46 17° SE 11:45:55 10° E daylight
28 Jan - 13:34:22 10° SW 13:42:48 48° SSE 13:55:02 10° E daylight
28 Jan - 15:37:16 10° WSW 15:47:52 70° S 16:02:24 10° E daylight
28 Jan - 17:41:37 10° W 17:54:01 64° SSW 18:08:54 10° ESE visible
28 Jan - 19:47:13 10° W 19:59:49 39° SW 20:12:42 10° SSE visible
28 Jan - 21:57:43 10° WSW 22:04:22 13° SW 22:09:39 10° SSW visible
29 Jan - 11:04:38 10° SSE 11:07:36 13° SE 11:11:35 10° ESE daylight
29 Jan - 13:02:32 10° SW 13:10:18 43° SSE 13:21:39 10° E daylight
29 Jan - 15:05:04 10° WSW 15:15:01 68° S 15:29:06 10° E daylight
29 Jan - 17:09:09 10° W 17:20:59 65° SSW 17:35:51 10° ESE daylight
29 Jan - 19:14:23 10° W 19:26:51 42° SSW 19:40:12 10° SSE visible
29 Jan - 21:23:25 10° W 21:31:39 16° SW 21:38:45 10° SSW visible
30 Jan - 12:30:47 10° SSW 12:37:54 38° SE 12:48:16 10° E daylight
30 Jan - 14:32:57 10° WSW 14:42:14 66° S 14:55:47 10° E daylight
30 Jan - 16:36:46 10° W 16:48:00 67° S 17:02:44 10° ESE daylight
30 Jan - 18:41:39 10° W 18:53:53 45° SSW 19:07:35 10° SE visible
30 Jan - 20:49:38 10° W 20:58:53 19° SW 21:07:20 10° S visible
31 Jan - 11:59:08 10° SSW 12:05:36 33° SE 12:14:53 10° E daylight
31 Jan - 14:00:54 10° WSW 14:09:34 63° SSE 14:22:27 10° E daylight
31 Jan - 16:04:27 10° W 16:15:04 68° S 16:29:32 10° ESE daylight
31 Jan - 18:09:03 10° W 18:20:55 47° SSW 18:34:51 10° SE visible
31 Jan - 20:16:12 10° W 20:26:05 22° SW 20:35:36 10° S visible
01 Feb - 11:27:35 10° SSW 11:33:23 28° SE 11:41:30 10° E daylight
01 Feb - 13:28:54 10° WSW 13:36:58 60° SSE 13:49:07 10° E daylight
01 Feb - 15:32:13 10° W 15:42:12 68° S 15:56:18 10° ESE daylight
01 Feb - 17:36:32 10° W 17:47:58 50° SSW 18:02:00 10° SE visible
01 Feb - 19:43:00 10° W 19:53:15 24° SW 20:03:37 10° S visible
02 Feb - 10:56:10 10° S 11:01:12 23° SE 11:08:06 10° E daylight
02 Feb - 12:56:59 10° SW 13:04:28 56° SSE 13:15:49 10° E daylight
02 Feb - 15:00:03 10° W 15:09:24 68° S 15:23:01 10° ESE daylight
02 Feb - 17:04:07 10° W 17:15:03 52° SSW 17:29:04 10° SE daylight
02 Feb - 19:10:01 10° W 19:20:24 27° SW 19:31:25 10° S visible
03 Feb - 10:24:55 10° S 10:29:06 19° SE 10:34:38 10° E daylight
03 Feb - 12:25:07 10° SW 12:32:03 51° SSE 12:42:32 10° E daylight
03 Feb - 14:27:56 10° W 14:36:41 68° S 14:49:43 10° ESE daylight
03 Feb - 16:31:46 10° W 16:42:10 54° SSW 16:56:02 10° SE daylight
03 Feb - 18:37:11 10° W 18:47:33 29° SW 18:59:04 10° SSE visible
04 Feb - 09:53:58 10° SSE 09:57:02 14° SE 10:00:59 10° ESE daylight
04 Feb - 11:53:19 10° SW 11:59:43 46° SSE 12:09:19 10° E daylight
04 Feb - 13:55:53 10° WSW 14:04:03 67° S 14:16:26 10° E daylight
04 Feb - 15:59:30 10° W 16:09:20 56° SSW 16:22:57 10° SE daylight
04 Feb - 18:04:30 10° W 18:14:42 31° SW 18:26:34 10° SSE visible
05 Feb - 09:23:55 10° SE 09:25:01 11° SE 09:26:32 10° ESE daylight
05 Feb - 11:21:34 10° SW 11:27:27 41° SSE 11:36:08 10° E daylight
05 Feb - 13:23:54 10° WSW 13:31:29 66° S 13:43:09 10° E daylight
05 Feb - 15:27:19 10° W 15:36:35 57° SSW 15:49:48 10° ESE daylight
05 Feb - 17:31:56 10° W 17:41:53 33° SSW 17:53:56 10° SSE daylight
05 Feb - 19:42:58 10° WSW 19:46:49 11° SW 19:49:28 10° SW visible
